This demonstration page uses our WeatherBlox Daily Observations layout. Learn more.

Left ArrowRight Arrow

Hourly Observations for November 20, 2015

Temp ( °F °C ) Dew Point ( °F °C ) Humidity (%) Winds ( mph kmh ) Pressure ( in mb ) Visibility ( mi km ) Precip ( " mm )
12:53 am 00:53 Clear 52 11.1 43 6.1 72 72 NNW 5 7 30.17 1022 10 16 0.00 0.00
1:53 am 01:53 Clear 51 10.6 43 6.1 74 74 NW 5 7 30.17 1022 10 16 0.00 0.00
2:53 am 02:53 Clear 50 10 44 6.7 80 80 WNW 5 7 30.18 1022 10 16 0.00 0.00
3:53 am 03:53 Clear 50 10 43 6.1 77 77 NNW 5 7 30.16 1022 10 16 0.00 0.00
4:53 am 04:53 Clear 48 8.9 42 5.6 80 80 NNW 3 6 30.17 1022 10 16 0.00 0.00
5:53 am 05:53 Clear 47 8.3 41 5 80 80 Calm 30.18 1022 10 16 0.00 0.00
6:53 am 06:53 Clear 47 8.3 40 4.4 77 77 N 3 6 30.20 1023 10 16 0.00 0.00
7:53 am 07:53 Sunny 47 8.3 39 3.9 74 74 Calm 30.21 1023 10 16 0.00 0.00
8:53 am 08:53 Sunny 50 10 39 3.9 66 66 NNW 3 6 30.22 1023 10 16 0.00 0.00
9:53 am 09:53 Sunny 55 12.8 38 3.3 53 53 N 5 7 30.22 1024 10 16 0.00 0.00
10:53 am 10:53 Sunny 59 15 38 3.3 46 46 NNW 5 7 30.23 1024 10 16 0.00 0.00
11:53 am 11:53 Sunny 64 17.8 37 2.8 37 37 NW 3 6 30.19 1022 10 16 0.00 0.00
12:53 pm 12:53 Sunny 65 18.3 37 2.8 36 36 NW 7 11 30.16 1021 10 16 0.00 0.00
1:53 pm 13:53 Sunny 67 19.4 36 2.2 32 32 NNE 6 9 30.13 1020 10 16 0.00 0.00
2:53 pm 14:53 Sunny 68 20 34 1.1 28 28 NNE 7 11 30.11 1020 10 16 0.00 0.00
3:53 pm 15:53 Sunny 68 20 35 1.7 30 30 NW 5 7 30.10 1019 10 16 0.00 0.00
4:53 pm 16:53 Sunny 65 18.3 36 2.2 34 34 NW 6 9 30.11 1020 10 16 0.00 0.00
5:53 pm 17:53 Clear 61 16.1 37 2.8 41 41 N 3 6 30.11 1020 10 16 0.00 0.00
6:53 pm 18:53 Clear 57 13.9 37 2.8 47 47 Calm 30.11 1020 10 16 0.00 0.00
7:53 pm 19:53 Clear 51 10.6 40 4.4 66 66 Calm 30.13 1020 10 16 0.00 0.00
8:53 pm 20:53 Clear 49 9.4 42 5.6 77 77 Calm 30.14 1021 10 16 0.00 0.00
9:53 pm 21:53 Clear 46 7.8 41 5 83 83 Calm 30.14 1021 10 16 0.00 0.00
10:53 pm 22:53 Clear 44 6.7 41 5 89 89 NNE 3 6 30.13 1020 10 16 0.00 0.00
11:53 pm 23:53 Clear 43 6.1 40 4.4 89 89 Calm 30.14 1021 10 16 0.00 0.00

Powered by AerisWeather